sat.trackr.live / text

‹ back to catalog

UOSAT 2 (UO-11)

NORAD 14781 · 1984-021B

PAYLOAD ACTIVE UNKNOWN

§ Identity

Operator
Country
UK
Launch date
1984-03-01
Launch site
AFWTR
Launch vehicle
Mass (kg)
RCS (m²)
0.40

Purposes: comms

External: N2YO · Heavens-Above · Gunter

§ Orbital elements

Epoch: 2026-05-24T20:42:47.902752Z

Period
96.60 min
Inclination
97.8043°
Eccentricity
0.0006077
Mean motion
14.90717918 rev/d
Perigee alt
591.5 km
Apogee alt
599.9 km
Semi-major
6,973.8 km
B*
1.0958e-4
RAAN
110.7018°
Arg perigee
259.9463°
Mean anomaly
100.1069°
Rev number
25,365

§ Raw data

UOSAT 2 (UO-11)1 14781U 84021B   26144.86305443  .00001020  00000+0  10958-3 0  99942 14781  97.8043 110.7018 0006077 259.9463 100.1069 14.90717918253655

JSON: /api/v1/satellites/14781 · /tle

For live sub-satellite position, see the globe view (requires WebGL).

§ Visibility from observer

Set your observer location to see the next 7 days of passes ≥ 10°. The values pass through the URL so the page stays shareable.

No JS? Fill the form by hand. The geolocation button needs JavaScript.

§ Radio — SatNOGS DB

ModeDescriptionDownlinkUplink
AFSK 1k2 AFSK TLM 145.825 MHz
AFSK 1k2 AFSK Payload (inactive) 435.025 MHz
PSK 4k8 PSK Payload (inactive) 435.025 MHz
FM FM Beacon (inactive) 2.402 GHz

4 transmitters · refreshed weekly from db.satnogs.org